Time,TemperatureF,DewpointF,PressureIn,WindDirection,WindDirectionDegrees,WindSpeedMPH,WindSpeedGustMPH,Humidity,HourlyPrecipIn,Conditions,Clouds,dailyrainin,SoftwareType,DateUTC
2013-02-02 00:00:00,16.2,10.0,30.38,WSW,242,0.0,9.0,76,0.00,,,0.00,VWS V14.01,2013-02-02 05:00:00,
2013-02-02 00:02:00,16.2,10.0,30.38,WSW,242,0.0,9.0,76,0.00,,,0.00,VWS V14.01,2013-02-02 05:02:00,
2013-02-02 00:08:00,16.2,9.7,30.38,WSW,242,0.0,9.0,75,0.00,,,0.00,VWS V14.01,2013-02-02 05:08:00,
2013-02-02 00:13:00,16.1,9.3,30.38,WSW,242,0.0,9.0,74,0.00,,,0.00,VWS V14.01,2013-02-02 05:13:00,
2013-02-02 00:18:00,16.1,9.6,30.38,WSW,242,0.0,9.0,75,0.00,,,0.00,VWS V14.01,2013-02-02 05:18:00,
2013-02-02 00:23:00,16.2,9.7,30.38,WSW,242,0.0,9.0,75,0.00,,,0.00,VWS V14.01,2013-02-02 05:23:00,
2013-02-02 00:28:00,16.2,9.7,30.38,WSW,242,0.0,9.0,75,0.00,,,0.00,VWS V14.01,2013-02-02 05:28:00,
2013-02-02 00:33:00,16.2,9.4,30.38,WSW,242,0.0,9.0,74,0.00,,,0.00,VWS V14.01,2013-02-02 05:33:00,
2013-02-02 00:38:00,16.2,9.7,30.36,WSW,242,0.0,9.0,75,0.00,,,0.00,VWS V14.01,2013-02-02 05:38:00,
2013-02-02 00:43:00,16.2,9.7,30.36,WSW,242,0.0,9.0,75,0.00,,,0.00,VWS V14.01,2013-02-02 05:43:00,
2013-02-02 00:48:00,16.2,9.7,30.36,WSW,242,0.0,9.0,75,0.00,,,0.00,VWS V14.01,2013-02-02 05:48:00,
2013-02-02 00:53:00,16.2,9.4,30.35,WSW,242,0.0,9.0,74,0.00,,,0.00,VWS V14.01,2013-02-02 05:53:00,
2013-02-02 00:58:00,16.2,9.7,30.35,WSW,242,0.0,9.0,75,0.00,,,0.00,VWS V14.01,2013-02-02 05:58:00,
2013-02-02 01:03:00,16.2,10.0,30.35,WSW,242,0.0,9.0,76,0.00,,,0.00,VWS V14.01,2013-02-02 06:03:00,
2013-02-02 01:08:00,16.2,10.3,30.35,WSW,242,0.0,9.0,77,0.00,,,0.00,VWS V14.01,2013-02-02 06:08:00,
2013-02-02 01:13:00,16.2,10.3,30.35,WSW,242,0.0,9.0,77,0.00,,,0.00,VWS V14.01,2013-02-02 06:13:00,
2013-02-02 01:18:00,16.2,10.3,30.35,WSW,242,0.0,9.0,77,0.00,,,0.00,VWS V14.01,2013-02-02 06:18:00,
2013-02-02 01:23:00,16.1,9.9,30.33,WSW,242,0.0,9.0,76,0.00,,,0.00,VWS V14.01,2013-02-02 06:23:00,
2013-02-02 01:28:00,16.1,9.9,30.33,WSW,242,0.0,9.0,76,0.00,,,0.00,VWS V14.01,2013-02-02 06:28:00,
2013-02-02 01:33:00,16.1,10.2,30.33,WSW,242,0.0,9.0,77,0.00,,,0.00,VWS V14.01,2013-02-02 06:33:00,
2013-02-02 01:39:00,16.1,9.9,30.34,WSW,242,0.0,9.0,76,0.00,,,0.00,VWS V14.01,2013-02-02 06:39:00,
2013-02-02 01:44:00,16.2,9.7,30.34,WSW,242,0.0,9.0,75,0.00,,,0.00,VWS V14.01,2013-02-02 06:44:00,
2013-02-02 01:49:00,16.2,9.7,30.34,WSW,242,0.0,9.0,75,0.00,,,0.00,VWS V14.01,2013-02-02 06:49:00,
2013-02-02 01:54:00,16.2,9.7,30.34,WSW,242,0.0,9.0,75,0.00,,,0.00,VWS V14.01,2013-02-02 06:54:00,
2013-02-02 01:59:00,16.1,9.6,30.34,WSW,242,0.0,9.0,75,0.00,,,0.00,VWS V14.01,2013-02-02 06:59:00,
2013-02-02 02:04:00,16.2,10.0,30.34,WSW,242,0.0,9.0,76,0.00,,,0.00,VWS V14.01,2013-02-02 07:04:00,
2013-02-02 02:09:00,16.2,10.3,30.33,WSW,242,0.0,9.0,77,0.00,,,0.00,VWS V14.01,2013-02-02 07:09:00,
2013-02-02 02:14:00,16.1,10.2,30.33,WSW,242,0.0,9.0,77,0.00,,,0.00,VWS V14.01,2013-02-02 07:14:00,
2013-02-02 02:19:00,15.9,10.0,30.33,WSW,242,0.0,9.0,77,0.00,,,0.00,VWS V14.01,2013-02-02 07:19:00,
2013-02-02 02:24:00,15.7,9.5,30.33,WSW,242,0.0,9.0,76,0.00,,,0.00,VWS V14.01,2013-02-02 07:24:00,
2013-02-02 02:29:00,15.6,9.4,30.33,WSW,242,0.0,9.0,76,0.00,,,0.00,VWS V14.01,2013-02-02 07:29:00,
2013-02-02 02:34:00,15.6,9.1,30.33,WSW,242,0.0,9.0,75,0.00,,,0.00,VWS V14.01,2013-02-02 07:34:00,
2013-02-02 02:39:00,15.6,9.4,30.32,WSW,242,0.0,9.0,76,0.00,,,0.00,VWS V14.01,2013-02-02 07:39:00,
2013-02-02 02:44:00,15.7,9.8,30.32,WSW,242,0.0,9.0,77,0.00,,,0.00,VWS V14.01,2013-02-02 07:44:00,
2013-02-02 02:49:00,15.7,9.8,30.32,WSW,242,0.0,9.0,77,0.00,,,0.00,VWS V14.01,2013-02-02 07:49:00,
2013-02-02 02:54:00,15.6,9.7,30.32,WSW,242,0.0,9.0,77,0.00,,,0.00,VWS V14.01,2013-02-02 07:54:00,
2013-02-02 02:59:00,15.6,9.7,30.32,WSW,242,0.0,9.0,77,0.00,,,0.00,VWS V14.01,2013-02-02 07:59:00,
2013-02-02 03:05:00,15.6,9.7,30.32,WSW,242,0.0,9.0,77,0.00,,,0.00,VWS V14.01,2013-02-02 08:05:00,
2013-02-02 03:10:00,15.4,9.5,30.32,WSW,242,0.0,9.0,77,0.00,,,0.00,VWS V14.01,2013-02-02 08:10:00,
2013-02-02 03:16:00,15.4,9.5,30.32,WSW,242,0.0,9.0,77,0.00,,,0.00,VWS V14.01,2013-02-02 08:16:00,
2013-02-02 03:21:00,15.6,10.0,30.32,WSW,242,0.0,9.0,78,0.00,,,0.00,VWS V14.01,2013-02-02 08:21:00,
2013-02-02 03:26:00,15.6,10.0,30.32,WSW,242,0.0,9.0,78,0.00,,,0.00,VWS V14.01,2013-02-02 08:26:00,
2013-02-02 03:31:00,15.7,10.1,30.32,WSW,242,0.0,9.0,78,0.00,,,0.00,VWS V14.01,2013-02-02 08:31:00,
2013-02-02 03:36:00,15.7,10.4,30.32,WSW,242,0.0,9.0,79,0.00,,,0.00,VWS V14.01,2013-02-02 08:36:00,
2013-02-02 03:41:00,15.6,9.7,30.32,WSW,242,0.0,9.0,77,0.00,,,0.00,VWS V14.01,2013-02-02 08:41:00,
2013-02-02 03:46:00,15.6,9.7,30.32,WSW,242,0.0,9.0,77,0.00,,,0.00,VWS V14.01,2013-02-02 08:46:00,
2013-02-02 03:51:00,15.6,9.7,30.31,WSW,242,0.0,9.0,77,0.00,,,0.00,VWS V14.01,2013-02-02 08:51:00,
2013-02-02 03:56:00,15.6,9.7,30.31,WSW,242,0.0,9.0,77,0.00,,,0.00,VWS V14.01,2013-02-02 08:56:00,
2013-02-02 04:01:00,15.4,9.8,30.31,WSW,242,0.0,9.0,78,0.00,,,0.00,VWS V14.01,2013-02-02 09:01:00,
2013-02-02 04:06:00,15.4,9.8,30.31,WSW,242,0.0,9.0,78,0.00,,,0.00,VWS V14.01,2013-02-02 09:06:00,
2013-02-02 04:11:00,15.4,10.1,30.31,WSW,242,0.0,9.0,79,0.00,,,0.00,VWS V14.01,2013-02-02 09:11:00,
2013-02-02 04:16:00,15.4,10.1,30.31,WSW,242,0.0,9.0,79,0.00,,,0.00,VWS V14.01,2013-02-02 09:16:00,
2013-02-02 04:21:00,15.4,10.4,30.31,WSW,242,0.0,9.0,80,0.00,,,0.00,VWS V14.01,2013-02-02 09:21:00,
2013-02-02 04:26:00,15.4,10.1,30.31,WSW,242,0.0,9.0,79,0.00,,,0.00,VWS V14.01,2013-02-02 09:26:00,
2013-02-02 04:31:00,15.4,10.1,30.31,WSW,242,0.0,9.0,79,0.00,,,0.00,VWS V14.01,2013-02-02 09:31:00,
2013-02-02 04:37:00,15.4,10.1,30.29,WSW,242,0.0,9.0,79,0.00,,,0.00,VWS V14.01,2013-02-02 09:37:00,
2013-02-02 04:42:00,15.7,10.6,30.29,WSW,242,0.0,9.0,80,0.00,,,0.00,VWS V14.01,2013-02-02 09:42:00,
2013-02-02 04:47:00,15.7,10.4,30.29,WSW,242,0.0,9.0,79,0.00,,,0.00,VWS V14.01,2013-02-02 09:47:00,
2013-02-02 04:52:00,15.7,10.4,30.29,WSW,242,0.0,9.0,79,0.00,,,0.00,VWS V14.01,2013-02-02 09:52:00,
2013-02-02 04:57:00,15.7,10.1,30.29,WSW,242,0.0,9.0,78,0.00,,,0.00,VWS V14.01,2013-02-02 09:57:00,
2013-02-02 05:02:00,15.6,9.7,30.29,WSW,242,0.0,9.0,77,0.00,,,0.00,VWS V14.01,2013-02-02 10:02:00,
2013-02-02 05:07:00,15.7,10.1,30.29,WSW,242,0.0,9.0,78,0.00,,,0.00,VWS V14.01,2013-02-02 10:07:00,
2013-02-02 05:12:00,15.7,10.1,30.29,WSW,242,0.0,9.0,78,0.00,,,0.00,VWS V14.01,2013-02-02 10:12:00,
2013-02-02 05:17:00,15.7,10.1,30.29,WSW,242,0.0,9.0,78,0.00,,,0.00,VWS V14.01,2013-02-02 10:17:00,
2013-02-02 05:22:00,15.7,10.1,30.31,WSW,242,0.0,9.0,78,0.00,,,0.00,VWS V14.01,2013-02-02 10:22:00,
2013-02-02 05:27:00,15.9,10.6,30.31,WSW,242,0.0,9.0,79,0.00,,,0.00,VWS V14.01,2013-02-02 10:27:00,
2013-02-02 05:32:00,16.1,10.8,30.31,WSW,242,0.0,9.0,79,0.00,,,0.00,VWS V14.01,2013-02-02 10:32:00,
2013-02-02 05:37:00,16.1,11.0,30.31,WSW,242,0.0,9.0,80,0.00,,,0.00,VWS V14.01,2013-02-02 10:37:00,
2013-02-02 05:42:00,15.9,10.6,30.31,WSW,242,0.0,9.0,79,0.00,,,0.00,VWS V14.01,2013-02-02 10:42:00,
2013-02-02 05:47:00,15.7,10.1,30.31,WSW,242,0.0,9.0,78,0.00,,,0.00,VWS V14.01,2013-02-02 10:47:00,
2013-02-02 05:52:00,15.6,9.7,30.31,WSW,242,0.0,9.0,77,0.00,,,0.00,VWS V14.01,2013-02-02 10:52:00,
2013-02-02 05:57:00,15.7,10.1,30.31,WSW,242,0.0,9.0,78,0.00,,,0.00,VWS V14.01,2013-02-02 10:57:00,
2013-02-02 06:02:00,15.7,10.4,30.31,WSW,242,0.0,9.0,79,0.00,,,0.00,VWS V14.01,2013-02-02 11:02:00,
2013-02-02 06:07:00,15.7,10.4,30.31,WSW,242,0.0,9.0,79,0.00,,,0.00,VWS V14.01,2013-02-02 11:07:00,
2013-02-02 06:12:00,15.7,10.4,30.31,WSW,242,0.0,9.0,79,0.00,,,0.00,VWS V14.01,2013-02-02 11:12:00,
2013-02-02 06:18:00,15.9,10.8,30.31,WSW,242,0.0,9.0,80,0.00,,,0.00,VWS V14.01,2013-02-02 11:18:00,
2013-02-02 06:23:00,16.1,11.0,30.31,WSW,242,0.0,9.0,80,0.00,,,0.00,VWS V14.01,2013-02-02 11:23:00,
2013-02-02 06:28:00,16.2,11.1,30.31,WSW,242,0.0,9.0,80,0.00,,,0.00,VWS V14.01,2013-02-02 11:28:00,
2013-02-02 06:33:00,16.4,11.3,30.31,WSW,242,0.0,9.0,80,0.00,,,0.00,VWS V14.01,2013-02-02 11:33:00,
2013-02-02 06:38:00,16.5,11.4,30.31,WSW,242,0.0,9.0,80,0.00,,,0.00,VWS V14.01,2013-02-02 11:38:00,
2013-02-02 06:43:00,16.9,11.8,30.31,WSW,242,0.0,9.0,80,0.00,,,0.00,VWS V14.01,2013-02-02 11:43:00,
2013-02-02 06:48:00,17.2,11.8,30.31,WSW,242,0.0,9.0,79,0.00,,,0.00,VWS V14.01,2013-02-02 11:48:00,
2013-02-02 06:53:00,17.3,11.6,30.31,WSW,242,0.0,9.0,78,0.00,,,0.00,VWS V14.01,2013-02-02 11:53:00,
2013-02-02 06:58:00,17.7,12.0,30.31,WSW,242,0.0,9.0,78,0.00,,,0.00,VWS V14.01,2013-02-02 11:58:00,
2013-02-02 07:03:00,17.8,11.8,30.31,WSW,242,0.0,9.0,77,0.00,,,0.00,VWS V14.01,2013-02-02 12:03:00,
2013-02-02 07:08:00,18.0,11.7,30.31,WSW,242,0.0,9.0,76,0.00,,,0.00,VWS V14.01,2013-02-02 12:08:00,
2013-02-02 07:13:00,18.1,11.8,30.31,WSW,242,0.0,9.0,76,0.00,,,0.00,VWS V14.01,2013-02-02 12:13:00,
2013-02-02 07:18:00,18.4,11.8,30.31,WSW,242,0.0,9.0,75,0.00,,,0.00,VWS V14.01,2013-02-02 12:18:00,
2013-02-02 07:23:00,18.8,12.2,30.31,WSW,242,0.0,9.0,75,0.00,,,0.00,VWS V14.01,2013-02-02 12:23:00,
2013-02-02 07:28:00,18.9,12.3,30.31,WSW,242,0.0,9.0,75,0.00,,,0.00,VWS V14.01,2013-02-02 12:28:00,
2013-02-02 07:33:00,19.1,12.2,30.31,WSW,242,0.0,9.0,74,0.00,,,0.00,VWS V14.01,2013-02-02 12:33:00,
2013-02-02 07:38:00,19.5,13.2,30.31,WSW,242,1.0,9.0,76,0.00,,,0.00,VWS V14.01,2013-02-02 12:38:00,
2013-02-02 07:43:00,19.5,13.2,30.31,WSW,242,0.0,9.0,76,0.00,,,0.00,VWS V14.01,2013-02-02 12:43:00,
2013-02-02 07:48:00,19.5,13.5,30.31,WSW,242,0.0,9.0,77,0.00,,,0.00,VWS V14.01,2013-02-02 12:48:00,
2013-02-02 07:54:00,19.7,13.4,30.30,WSW,242,0.0,9.0,76,0.00,,,0.00,VWS V14.01,2013-02-02 12:54:00,
2013-02-02 07:59:00,19.9,13.3,30.30,WSW,242,0.0,9.0,75,0.00,,,0.00,VWS V14.01,2013-02-02 12:59:00,
2013-02-02 08:04:00,20.3,13.4,30.30,WSW,242,0.0,9.0,74,0.00,,,0.00,VWS V14.01,2013-02-02 13:04:00,
2013-02-02 08:09:00,20.6,13.3,30.30,WSW,242,0.0,9.0,73,0.00,,,0.00,VWS V14.01,2013-02-02 13:09:00,
2013-02-02 08:14:00,20.6,13.0,30.30,WSW,242,0.0,9.0,72,0.00,,,0.00,VWS V14.01,2013-02-02 13:14:00,
2013-02-02 08:19:00,21.0,13.1,30.30,WSW,242,0.0,9.0,71,0.00,,,0.00,VWS V14.01,2013-02-02 13:19:00,
2013-02-02 08:24:00,21.1,12.9,30.30,WSW,242,1.0,9.0,70,0.00,,,0.00,VWS V14.01,2013-02-02 13:24:00,
2013-02-02 08:29:00,21.3,12.7,30.30,WSW,242,0.0,9.0,69,0.00,,,0.00,VWS V14.01,2013-02-02 13:29:00,
2013-02-02 08:34:00,21.3,13.1,30.30,WSW,242,0.0,9.0,70,0.00,,,0.00,VWS V14.01,2013-02-02 13:34:00,
2013-02-02 08:39:00,21.3,13.1,30.30,WSW,242,0.0,9.0,70,0.00,,,0.00,VWS V14.01,2013-02-02 13:39:00,
2013-02-02 08:44:00,21.3,13.4,30.30,WSW,242,0.0,9.0,71,0.00,,,0.00,VWS V14.01,2013-02-02 13:44:00,
2013-02-02 08:49:00,21.6,13.3,30.29,WSW,242,0.0,9.0,70,0.00,,,0.00,VWS V14.01,2013-02-02 13:49:00,
2013-02-02 08:54:00,21.9,13.3,30.29,WSW,242,0.0,9.0,69,0.00,,,0.00,VWS V14.01,2013-02-02 13:54:00,
2013-02-02 08:59:00,22.4,12.8,30.29,WSW,242,0.0,9.0,66,0.00,,,0.00,VWS V14.01,2013-02-02 13:59:00,
2013-02-02 09:05:00,22.9,13.3,30.29,WSW,242,0.0,9.0,66,0.00,,,0.00,VWS V14.01,2013-02-02 14:05:00,
2013-02-02 09:10:00,23.0,13.7,30.29,WSW,242,1.0,9.0,67,0.00,,,0.00,VWS V14.01,2013-02-02 14:10:00,
2013-02-02 09:15:00,23.0,14.0,30.29,WSW,242,1.0,9.0,68,0.00,,,0.00,VWS V14.01,2013-02-02 14:15:00,
2013-02-02 09:20:00,22.9,15.2,30.27,WSW,242,0.0,9.0,72,0.00,,,0.00,VWS V14.01,2013-02-02 14:20:00,
2013-02-02 09:25:00,22.7,15.4,30.27,WSW,242,1.0,9.0,73,0.00,,,0.00,VWS V14.01,2013-02-02 14:25:00,
2013-02-02 09:30:00,22.5,15.2,30.27,WSW,242,1.0,9.0,73,0.00,,,0.00,VWS V14.01,2013-02-02 14:30:00,
2013-02-02 09:35:00,22.2,14.9,30.27,WSW,242,0.0,9.0,73,0.00,,,0.00,VWS V14.01,2013-02-02 14:35:00,
2013-02-02 09:40:00,22.4,13.4,30.27,WSW,242,2.0,9.0,68,0.00,,,0.00,VWS V14.01,2013-02-02 14:40:00,
2013-02-02 09:45:00,22.7,12.0,30.27,WSW,242,2.0,9.0,63,0.00,,,0.00,VWS V14.01,2013-02-02 14:45:00,
2013-02-02 09:50:00,23.3,11.5,30.26,WSW,242,0.0,9.0,60,0.00,,,0.00,VWS V14.01,2013-02-02 14:50:00,
2013-02-02 09:55:00,24.1,11.5,30.26,WSW,242,0.0,9.0,58,0.00,,,0.00,VWS V14.01,2013-02-02 14:55:00,
2013-02-02 10:00:00,24.5,12.2,30.26,WSW,242,0.0,9.0,59,0.00,,,0.00,VWS V14.01,2013-02-02 15:00:00,
2013-02-02 10:05:00,24.8,12.1,30.26,WSW,242,0.0,9.0,58,0.00,,,0.00,VWS V14.01,2013-02-02 15:05:00,
2013-02-02 10:10:00,25.1,12.8,30.26,WSW,242,0.0,9.0,59,0.00,,,0.00,VWS V14.01,2013-02-02 15:10:00,
2013-02-02 10:15:00,25.4,13.1,30.26,WSW,242,0.0,9.0,59,0.00,,,0.00,VWS V14.01,2013-02-02 15:15:00,
2013-02-02 10:20:00,25.7,13.4,30.26,West,272,2.0,9.0,59,0.00,,,0.00,VWS V14.01,2013-02-02 15:20:00,
2013-02-02 10:26:00,26.0,13.6,30.26,West,272,2.0,9.0,59,0.00,,,0.00,VWS V14.01,2013-02-02 15:26:00,
2013-02-02 10:31:00,26.0,13.3,30.26,West,260,1.0,9.0,58,0.00,,,0.00,VWS V14.01,2013-02-02 15:31:00,
2013-02-02 10:36:00,25.7,13.8,30.26,West,260,2.0,9.0,60,0.00,,,0.00,VWS V14.01,2013-02-02 15:36:00,
2013-02-02 10:41:00,25.7,13.8,30.26,West,259,0.0,9.0,60,0.00,,,0.00,VWS V14.01,2013-02-02 15:41:00,
2013-02-02 10:46:00,25.6,13.3,30.26,South,169,1.0,9.0,59,0.00,,,0.00,VWS V14.01,2013-02-02 15:46:00,
2013-02-02 10:51:00,25.6,13.3,30.27,NW,325,3.0,9.0,59,0.00,,,0.00,VWS V14.01,2013-02-02 15:51:00,
2013-02-02 10:56:00,25.8,11.5,30.27,WNW,289,4.0,9.0,54,0.00,,,0.00,VWS V14.01,2013-02-02 15:56:00,
2013-02-02 11:01:00,26.1,11.3,30.27,SSW,211,1.0,9.0,53,0.00,,,0.00,VWS V14.01,2013-02-02 16:01:00,
2013-02-02 11:06:00,26.4,12.4,30.28,West,276,0.0,9.0,55,0.00,,,0.00,VWS V14.01,2013-02-02 16:06:00,
2013-02-02 11:11:00,26.4,12.0,30.28,WSW,250,1.0,9.0,54,0.00,,,0.00,VWS V14.01,2013-02-02 16:11:00,
2013-02-02 11:16:00,26.7,11.9,30.28,NNW,339,5.0,9.0,53,0.00,,,0.00,VWS V14.01,2013-02-02 16:16:00,
2013-02-02 11:21:00,26.9,12.5,30.27,WSW,238,2.0,9.0,54,0.00,,,0.00,VWS V14.01,2013-02-02 16:21:00,
2013-02-02 11:27:00,27.2,12.8,30.27,West,270,2.0,9.0,54,0.00,,,0.00,VWS V14.01,2013-02-02 16:27:00,
2013-02-02 11:32:00,27.2,12.4,30.27,South,183,4.0,9.0,53,0.00,,,0.00,VWS V14.01,2013-02-02 16:32:00,
2013-02-02 11:37:00,27.0,12.6,30.26,WSW,241,3.0,9.0,54,0.00,,,0.00,VWS V14.01,2013-02-02 16:37:00,
2013-02-02 11:42:00,27.2,13.6,30.26,West,276,4.0,9.0,56,0.00,,,0.00,VWS V14.01,2013-02-02 16:42:00,
2013-02-02 11:47:00,27.3,16.0,30.26,WNW,284,2.0,9.0,62,0.00,,,0.00,VWS V14.01,2013-02-02 16:47:00,
2013-02-02 11:52:00,27.3,15.6,30.25,South,180,1.0,9.0,61,0.00,,,0.00,VWS V14.01,2013-02-02 16:52:00,
2013-02-02 11:57:00,27.2,17.0,30.25,NNW,329,7.0,9.0,65,0.00,,,0.00,VWS V14.01,2013-02-02 16:57:00,
2013-02-02 12:02:00,26.9,18.4,30.25,WNW,301,0.0,9.0,70,0.00,,,0.00,VWS V14.01,2013-02-02 17:02:00,
2013-02-02 12:07:00,26.7,19.2,30.24,SW,220,0.0,9.0,73,0.00,,,0.00,VWS V14.01,2013-02-02 17:07:00,
2013-02-02 12:12:00,26.6,19.4,30.24,NNW,347,0.0,9.0,74,0.00,,,0.00,VWS V14.01,2013-02-02 17:12:00,
2013-02-02 12:17:00,26.1,20.2,30.24,North,5,0.0,9.0,78,0.00,,,0.00,VWS V14.01,2013-02-02 17:17:00,
2013-02-02 12:22:00,25.6,20.0,30.23,SSE,159,0.0,9.0,79,0.00,,,0.00,VWS V14.01,2013-02-02 17:22:00,
2013-02-02 12:27:00,25.3,20.3,30.23,West,266,1.0,9.0,81,0.00,,,0.00,VWS V14.01,2013-02-02 17:27:00,
2013-02-02 12:32:00,25.3,20.6,30.23,ESE,116,1.0,9.0,82,0.00,,,0.00,VWS V14.01,2013-02-02 17:32:00,
2013-02-02 12:37:00,25.1,20.4,30.22,WSW,239,4.0,9.0,82,0.00,,,0.00,VWS V14.01,2013-02-02 17:37:00,
2013-02-02 12:43:00,25.1,21.0,30.22,NNW,338,0.0,9.0,84,0.00,,,0.00,VWS V14.01,2013-02-02 17:43:00,
2013-02-02 12:48:00,25.4,21.8,30.22,West,277,1.0,9.0,86,0.00,,,0.00,VWS V14.01,2013-02-02 17:48:00,
2013-02-02 12:53:00,25.6,22.0,30.20,West,265,0.0,9.0,86,0.00,,,0.00,VWS V14.01,2013-02-02 17:53:00,
2013-02-02 12:58:00,25.6,22.0,30.20,West,260,2.0,9.0,86,0.00,,,0.00,VWS V14.01,2013-02-02 17:58:00,
2013-02-02 13:03:00,25.6,22.0,30.20,WSW,258,4.0,9.0,86,0.00,,,0.00,VWS V14.01,2013-02-02 18:03:00,
2013-02-02 13:08:00,25.4,22.1,30.18,WSW,254,1.0,9.0,87,0.00,,,0.00,VWS V14.01,2013-02-02 18:08:00,
2013-02-02 13:13:00,25.6,22.3,30.18,West,274,2.0,9.0,87,0.00,,,0.00,VWS V14.01,2013-02-02 18:13:00,
2013-02-02 13:18:00,25.6,22.5,30.18,West,274,2.0,9.0,88,0.00,,,0.00,VWS V14.01,2013-02-02 18:18:00,
2013-02-02 13:23:00,25.6,22.5,30.17,West,271,1.0,9.0,88,0.00,,,0.00,VWS V14.01,2013-02-02 18:23:00,
2013-02-02 13:28:00,25.4,22.1,30.17,West,271,0.0,9.0,87,0.00,,,0.00,VWS V14.01,2013-02-02 18:28:00,
2013-02-02 13:33:00,25.6,22.3,30.17,West,263,2.0,9.0,87,0.00,,,0.00,VWS V14.01,2013-02-02 18:33:00,
2013-02-02 13:38:00,25.4,21.8,30.15,SW,217,0.0,9.0,86,0.01,,,0.01,VWS V14.01,2013-02-02 18:38:00,
2013-02-02 13:43:00,25.3,21.7,30.15,WNW,283,3.0,9.0,86,0.01,,,0.01,VWS V14.01,2013-02-02 18:43:00,
2013-02-02 13:48:00,25.3,21.7,30.15,WSW,240,2.0,9.0,86,0.01,,,0.01,VWS V14.01,2013-02-02 18:48:00,
2013-02-02 13:53:00,25.3,22.0,30.15,West,268,0.0,9.0,87,0.01,,,0.01,VWS V14.01,2013-02-02 18:53:00,
2013-02-02 13:58:00,25.1,21.8,30.15,WSW,243,4.0,9.0,87,0.01,,,0.01,VWS V14.01,2013-02-02 18:58:00,
2013-02-02 14:03:00,25.1,21.8,30.15,South,171,1.0,9.0,87,0.02,,,0.02,VWS V14.01,2013-02-02 19:03:00,
2013-02-02 14:08:00,25.0,21.7,30.15,WSW,237,0.0,9.0,87,0.02,,,0.02,VWS V14.01,2013-02-02 19:08:00,
2013-02-02 14:13:00,25.1,21.8,30.15,WSW,250,0.0,9.0,87,0.02,,,0.02,VWS V14.01,2013-02-02 19:13:00,
2013-02-02 14:19:00,25.3,22.2,30.15,WSW,250,0.0,9.0,88,0.02,,,0.02,VWS V14.01,2013-02-02 19:19:00,
2013-02-02 14:24:00,25.4,22.4,30.14,WSW,250,0.0,9.0,88,0.02,,,0.02,VWS V14.01,2013-02-02 19:24:00,
2013-02-02 14:29:00,25.6,22.3,30.14,WSW,250,1.0,9.0,87,0.02,,,0.02,VWS V14.01,2013-02-02 19:29:00,
2013-02-02 14:34:00,25.7,22.4,30.14,WSW,250,0.0,9.0,87,0.02,,,0.02,VWS V14.01,2013-02-02 19:34:00,
2013-02-02 14:39:00,25.8,22.2,30.12,WSW,250,0.0,9.0,86,0.01,,,0.02,VWS V14.01,2013-02-02 19:39:00,
2013-02-02 14:44:00,26.1,22.5,30.12,WSW,250,0.0,9.0,86,0.01,,,0.02,VWS V14.01,2013-02-02 19:44:00,
2013-02-02 14:49:00,26.1,22.5,30.12,WNW,284,0.0,9.0,86,0.01,,,0.02,VWS V14.01,2013-02-02 19:49:00,
2013-02-02 14:54:00,26.3,23.0,30.11,West,280,1.0,9.0,87,0.01,,,0.02,VWS V14.01,2013-02-02 19:54:00,
2013-02-02 14:59:00,26.3,23.0,30.11,SW,225,0.0,9.0,87,0.02,,,0.03,VWS V14.01,2013-02-02 19:59:00,
2013-02-02 15:04:00,26.3,22.7,30.11,West,269,0.0,9.0,86,0.02,,,0.03,VWS V14.01,2013-02-02 20:04:00,
2013-02-02 15:09:00,26.3,23.0,30.11,West,269,0.0,9.0,87,0.01,,,0.03,VWS V14.01,2013-02-02 20:09:00,
2013-02-02 15:14:00,26.3,23.2,30.11,West,269,1.0,9.0,88,0.01,,,0.03,VWS V14.01,2013-02-02 20:14:00,
2013-02-02 15:19:00,26.3,23.2,30.11,West,269,0.0,9.0,88,0.01,,,0.03,VWS V14.01,2013-02-02 20:19:00,
2013-02-02 15:24:00,26.3,23.2,30.12,West,268,0.0,9.0,88,0.01,,,0.03,VWS V14.01,2013-02-02 20:24:00,
2013-02-02 15:29:00,26.1,23.0,30.12,West,268,0.0,9.0,88,0.01,,,0.03,VWS V14.01,2013-02-02 20:29:00,
2013-02-02 15:34:00,26.3,23.2,30.11,West,268,0.0,9.0,88,0.01,,,0.03,VWS V14.01,2013-02-02 20:34:00,
2013-02-02 15:39:00,26.4,23.3,30.11,West,268,1.0,9.0,88,0.01,,,0.03,VWS V14.01,2013-02-02 20:39:00,
2013-02-02 15:45:00,26.4,23.3,30.11,West,265,0.0,9.0,88,0.02,,,0.04,VWS V14.01,2013-02-02 20:45:00,
2013-02-02 15:50:00,26.4,23.6,30.10,West,265,0.0,9.0,89,0.02,,,0.04,VWS V14.01,2013-02-02 20:50:00,
2013-02-02 15:55:00,26.4,23.6,30.10,West,265,0.0,9.0,89,0.02,,,0.04,VWS V14.01,2013-02-02 20:55:00,
2013-02-02 16:00:00,26.4,23.6,30.10,West,265,0.0,9.0,89,0.01,,,0.04,VWS V14.01,2013-02-02 21:00:00,
2013-02-02 16:05:00,26.4,23.6,30.10,West,265,0.0,9.0,89,0.01,,,0.04,VWS V14.01,2013-02-02 21:05:00,
2013-02-02 16:10:00,26.3,23.5,30.10,West,265,0.0,9.0,89,0.01,,,0.04,VWS V14.01,2013-02-02 21:10:00,
2013-02-02 16:15:00,26.3,23.5,30.10,West,265,0.0,9.0,89,0.01,,,0.04,VWS V14.01,2013-02-02 21:15:00,
2013-02-02 16:20:00,26.1,23.3,30.09,West,265,0.0,9.0,89,0.01,,,0.04,VWS V14.01,2013-02-02 21:20:00,
2013-02-02 16:25:00,26.1,23.3,30.09,West,265,0.0,9.0,89,0.01,,,0.04,VWS V14.01,2013-02-02 21:25:00,
2013-02-02 16:30:00,26.1,23.3,30.09,West,265,0.0,9.0,89,0.02,,,0.05,VWS V14.01,2013-02-02 21:30:00,
2013-02-02 16:35:00,26.1,23.6,30.09,West,265,0.0,9.0,90,0.02,,,0.05,VWS V14.01,2013-02-02 21:35:00,
2013-02-02 16:40:00,26.1,23.6,30.09,West,265,0.0,9.0,90,0.02,,,0.05,VWS V14.01,2013-02-02 21:40:00,
2013-02-02 16:45:00,26.1,23.6,30.09,West,265,1.0,9.0,90,0.03,,,0.06,VWS V14.01,2013-02-02 21:45:00,
2013-02-02 16:50:00,26.1,23.6,30.09,West,265,0.0,9.0,90,0.02,,,0.06,VWS V14.01,2013-02-02 21:50:00,
2013-02-02 16:55:00,26.1,23.6,30.09,West,265,0.0,9.0,90,0.02,,,0.06,VWS V14.01,2013-02-02 21:55:00,
2013-02-02 17:00:00,26.3,23.8,30.09,West,265,0.0,9.0,90,0.02,,,0.06,VWS V14.01,2013-02-02 22:00:00,
2013-02-02 17:05:00,26.4,24.1,30.08,West,265,0.0,9.0,91,0.03,,,0.07,VWS V14.01,2013-02-02 22:05:00,
2013-02-02 17:10:00,26.4,23.9,30.08,West,265,1.0,9.0,90,0.03,,,0.07,VWS V14.01,2013-02-02 22:10:00,
2013-02-02 17:15:00,26.4,23.9,30.08,West,265,0.0,9.0,90,0.03,,,0.07,VWS V14.01,2013-02-02 22:15:00,
2013-02-02 17:20:00,26.3,23.8,30.08,West,265,0.0,9.0,90,0.03,,,0.07,VWS V14.01,2013-02-02 22:20:00,
2013-02-02 17:26:00,26.0,23.5,30.08,West,265,0.0,9.0,90,0.03,,,0.07,VWS V14.01,2013-02-02 22:26:00,
2013-02-02 17:31:00,25.8,23.3,30.08,West,265,0.0,9.0,90,0.02,,,0.07,VWS V14.01,2013-02-02 22:31:00,
2013-02-02 17:36:00,25.8,23.3,30.07,West,265,0.0,9.0,90,0.02,,,0.07,VWS V14.01,2013-02-02 22:36:00,
2013-02-02 17:41:00,26.0,23.7,30.07,West,265,0.0,9.0,91,0.03,,,0.08,VWS V14.01,2013-02-02 22:41:00,
2013-02-02 17:46:00,26.0,23.7,30.07,West,265,0.0,9.0,91,0.02,,,0.08,VWS V14.01,2013-02-02 22:46:00,
2013-02-02 17:51:00,26.0,23.7,30.07,West,265,1.0,9.0,91,0.02,,,0.08,VWS V14.01,2013-02-02 22:51:00,
2013-02-02 17:56:00,26.0,23.7,30.07,West,265,0.0,9.0,91,0.02,,,0.08,VWS V14.01,2013-02-02 22:56:00,
2013-02-02 18:01:00,25.8,23.5,30.07,West,265,0.0,9.0,91,0.03,,,0.09,VWS V14.01,2013-02-02 23:01:00,
2013-02-02 18:06:00,26.0,23.7,30.07,West,265,0.0,9.0,91,0.02,,,0.09,VWS V14.01,2013-02-02 23:06:00,
2013-02-02 18:11:00,26.0,23.7,30.07,West,265,0.0,9.0,91,0.03,,,0.10,VWS V14.01,2013-02-02 23:11:00,
2013-02-02 18:16:00,26.0,23.7,30.07,West,265,0.0,9.0,91,0.03,,,0.10,VWS V14.01,2013-02-02 23:16:00,
2013-02-02 18:21:00,26.1,23.8,30.07,West,265,0.0,9.0,91,0.04,,,0.11,VWS V14.01,2013-02-02 23:21:00,
2013-02-02 18:26:00,26.1,23.8,30.07,West,265,0.0,9.0,91,0.04,,,0.11,VWS V14.01,2013-02-02 23:26:00,
2013-02-02 18:32:00,26.3,24.0,30.07,West,265,0.0,9.0,91,0.05,,,0.12,VWS V14.01,2013-02-02 23:32:00,
2013-02-02 18:37:00,26.4,24.1,30.06,West,265,0.0,9.0,91,0.05,,,0.12,VWS V14.01,2013-02-02 23:37:00,
2013-02-02 18:42:00,26.4,24.1,30.06,West,265,0.0,9.0,91,0.04,,,0.12,VWS V14.01,2013-02-02 23:42:00,
2013-02-02 18:47:00,26.4,24.1,30.06,West,265,0.0,9.0,91,0.04,,,0.12,VWS V14.01,2013-02-02 23:47:00,
2013-02-02 18:52:00,26.6,24.3,30.06,West,265,0.0,9.0,91,0.05,,,0.13,VWS V14.01,2013-02-02 23:52:00,
2013-02-02 18:57:00,26.7,24.7,30.06,South,169,2.0,9.0,92,0.05,,,0.13,VWS V14.01,2013-02-02 23:57:00,
2013-02-02 19:02:00,27.0,25.0,30.06,West,277,0.0,9.0,92,0.04,,,0.13,VWS V14.01,2013-02-03 00:02:00,
2013-02-02 19:07:00,27.2,25.2,30.06,WSW,245,0.0,9.0,92,0.04,,,0.13,VWS V14.01,2013-02-03 00:07:00,
2013-02-02 19:12:00,27.2,25.2,30.06,WSW,245,0.0,9.0,92,0.04,,,0.14,VWS V14.01,2013-02-03 00:12:00,
2013-02-02 19:17:00,26.9,24.9,30.06,WSW,246,0.0,9.0,92,0.04,,,0.14,VWS V14.01,2013-02-03 00:17:00,
2013-02-02 19:22:00,26.7,24.7,30.06,WSW,246,0.0,9.0,92,0.03,,,0.14,VWS V14.01,2013-02-03 00:22:00,
2013-02-02 19:27:00,26.6,24.6,30.06,WSW,246,0.0,9.0,92,0.03,,,0.14,VWS V14.01,2013-02-03 00:27:00,
2013-02-02 19:32:00,26.4,24.4,30.06,WSW,244,0.0,9.0,92,0.02,,,0.14,VWS V14.01,2013-02-03 00:32:00,
2013-02-02 19:37:00,26.6,24.6,30.06,WSW,244,0.0,9.0,92,0.02,,,0.14,VWS V14.01,2013-02-03 00:37:00,
2013-02-02 19:42:00,26.6,24.6,30.06,WSW,244,0.0,9.0,92,0.03,,,0.15,VWS V14.01,2013-02-03 00:42:00,
2013-02-02 19:47:00,26.6,24.6,30.06,WSW,244,0.0,9.0,92,0.03,,,0.15,VWS V14.01,2013-02-03 00:47:00,
2013-02-02 19:52:00,26.6,24.6,30.06,WSW,244,0.0,9.0,92,0.02,,,0.15,VWS V14.01,2013-02-03 00:52:00,
2013-02-02 19:57:00,26.6,24.6,30.06,WSW,244,0.0,9.0,92,0.02,,,0.15,VWS V14.01,2013-02-03 00:57:00,
2013-02-02 20:02:00,26.4,24.4,30.06,WSW,244,0.0,9.0,92,0.02,,,0.15,VWS V14.01,2013-02-03 01:02:00,
2013-02-02 20:08:00,26.1,24.1,30.08,West,281,0.0,9.0,92,0.02,,,0.15,VWS V14.01,2013-02-03 01:08:00,
2013-02-02 20:13:00,26.1,24.1,30.08,West,281,0.0,9.0,92,0.01,,,0.15,VWS V14.01,2013-02-03 01:13:00,
2013-02-02 20:18:00,26.3,24.3,30.08,West,281,0.0,9.0,92,0.01,,,0.15,VWS V14.01,2013-02-03 01:18:00,
2013-02-02 20:23:00,26.7,25.0,30.07,WSW,246,0.0,9.0,93,0.02,,,0.16,VWS V14.01,2013-02-03 01:23:00,
2013-02-02 20:28:00,27.2,25.5,30.07,WSW,244,0.0,9.0,93,0.02,,,0.16,VWS V14.01,2013-02-03 01:28:00,
2013-02-02 20:33:00,27.5,25.8,30.07,WSW,244,0.0,9.0,93,0.02,,,0.16,VWS V14.01,2013-02-03 01:33:00,
2013-02-02 20:38:00,27.5,25.8,30.07,SSW,198,0.0,9.0,93,0.02,,,0.16,VWS V14.01,2013-02-03 01:38:00,
2013-02-02 20:43:00,27.6,25.8,30.07,WNW,287,1.0,9.0,93,0.01,,,0.16,VWS V14.01,2013-02-03 01:43:00,
2013-02-02 20:48:00,27.9,26.1,30.07,SSE,151,0.0,9.0,93,0.02,,,0.17,VWS V14.01,2013-02-03 01:48:00,
2013-02-02 20:53:00,28.1,26.3,30.07,SSE,147,0.0,9.0,93,0.02,,,0.17,VWS V14.01,2013-02-03 01:53:00,
2013-02-02 20:58:00,28.2,26.4,30.07,WNW,282,0.0,9.0,93,0.02,,,0.17,VWS V14.01,2013-02-03 01:58:00,
2013-02-02 21:03:00,28.2,26.4,30.07,West,271,0.0,9.0,93,0.02,,,0.17,VWS V14.01,2013-02-03 02:03:00,
2013-02-02 21:08:00,28.1,26.1,30.07,South,190,0.0,9.0,92,0.02,,,0.17,VWS V14.01,2013-02-03 02:08:00,
2013-02-02 21:13:00,27.8,25.8,30.07,WSW,238,0.0,9.0,92,0.02,,,0.17,VWS V14.01,2013-02-03 02:13:00,
2013-02-02 21:18:00,27.5,25.5,30.07,SW,223,0.0,9.0,92,0.02,,,0.17,VWS V14.01,2013-02-03 02:18:00,
2013-02-02 21:23:00,27.3,25.3,30.06,SSW,212,0.0,9.0,92,0.01,,,0.17,VWS V14.01,2013-02-03 02:23:00,
2013-02-02 21:28:00,27.5,25.8,30.06,West,274,5.0,9.0,93,0.01,,,0.17,VWS V14.01,2013-02-03 02:28:00,
2013-02-02 21:34:00,27.8,26.0,30.06,West,261,0.0,9.0,93,0.01,,,0.17,VWS V14.01,2013-02-03 02:34:00,
2013-02-02 21:39:00,27.9,26.4,30.06,West,261,0.0,9.0,94,0.01,,,0.17,VWS V14.01,2013-02-03 02:39:00,
2013-02-02 21:44:00,28.1,26.6,30.06,West,261,0.0,9.0,94,0.01,,,0.17,VWS V14.01,2013-02-03 02:44:00,
2013-02-02 21:49:00,27.9,26.1,30.06,WNW,296,4.0,9.0,93,0.00,,,0.17,VWS V14.01,2013-02-03 02:49:00,
2013-02-02 21:54:00,27.8,26.0,30.05,WNW,283,0.0,9.0,93,0.00,,,0.17,VWS V14.01,2013-02-03 02:54:00,
2013-02-02 21:59:00,27.8,26.3,30.05,SSW,203,0.0,9.0,94,0.00,,,0.17,VWS V14.01,2013-02-03 02:59:00,
2013-02-02 22:04:00,27.8,26.3,30.05,West,263,0.0,9.0,94,0.00,,,0.17,VWS V14.01,2013-02-03 03:04:00,
2013-02-02 22:09:00,27.9,26.4,30.05,WSW,245,1.0,9.0,94,0.00,,,0.17,VWS V14.01,2013-02-03 03:09:00,
2013-02-02 22:14:00,28.2,26.7,30.05,WSW,244,0.0,9.0,94,0.00,,,0.17,VWS V14.01,2013-02-03 03:14:00,
2013-02-02 22:19:00,28.5,27.0,30.05,West,273,1.0,9.0,94,0.00,,,0.17,VWS V14.01,2013-02-03 03:19:00,
2013-02-02 22:24:00,28.8,27.5,30.05,West,259,0.0,9.0,95,0.00,,,0.17,VWS V14.01,2013-02-03 03:24:00,
2013-02-02 22:29:00,29.0,27.8,30.05,SW,229,0.0,9.0,95,0.00,,,0.17,VWS V14.01,2013-02-03 03:29:00,
2013-02-02 22:34:00,29.1,27.9,30.05,WSW,250,3.0,9.0,95,0.00,,,0.17,VWS V14.01,2013-02-03 03:34:00,
2013-02-02 22:39:00,29.4,28.1,30.05,WNW,296,3.0,9.0,95,0.00,,,0.17,VWS V14.01,2013-02-03 03:39:00,
2013-02-02 22:44:00,29.7,28.5,30.05,WSW,250,2.0,9.0,95,0.00,,,0.17,VWS V14.01,2013-02-03 03:44:00,
2013-02-02 22:49:00,29.8,28.5,30.05,North,360,1.0,9.0,95,0.00,,,0.17,VWS V14.01,2013-02-03 03:49:00,
2013-02-02 22:54:00,30.0,28.7,30.04,NW,322,1.0,9.0,95,0.00,,,0.17,VWS V14.01,2013-02-03 03:54:00,
2013-02-02 22:59:00,30.1,28.8,30.04,NW,322,0.0,9.0,95,0.00,,,0.17,VWS V14.01,2013-02-03 03:59:00,
2013-02-02 23:04:00,30.1,28.8,30.04,WSW,245,0.0,9.0,95,0.00,,,0.17,VWS V14.01,2013-02-03 04:04:00,
2013-02-02 23:10:00,30.3,29.0,30.04,WSW,242,0.0,9.0,95,0.00,,,0.17,VWS V14.01,2013-02-03 04:10:00,
2013-02-02 23:15:00,30.3,29.0,30.04,SSW,201,3.0,9.0,95,0.00,,,0.17,VWS V14.01,2013-02-03 04:15:00,
2013-02-02 23:20:00,30.1,28.8,30.04,West,275,1.0,9.0,95,0.00,,,0.17,VWS V14.01,2013-02-03 04:20:00,
2013-02-02 23:25:00,30.1,28.8,30.04,SSW,205,1.0,9.0,95,0.00,,,0.17,VWS V14.01,2013-02-03 04:25:00,
2013-02-02 23:30:00,30.1,28.8,30.04,SW,232,0.0,9.0,95,0.00,,,0.17,VWS V14.01,2013-02-03 04:30:00,
2013-02-02 23:35:00,30.1,28.8,30.02,SW,232,2.0,9.0,95,0.00,,,0.17,VWS V14.01,2013-02-03 04:35:00,
2013-02-02 23:40:00,30.1,28.8,30.02,WSW,237,2.0,9.0,95,0.00,,,0.17,VWS V14.01,2013-02-03 04:40:00,
2013-02-02 23:45:00,30.3,29.0,30.02,West,276,1.0,9.0,95,0.00,,,0.17,VWS V14.01,2013-02-03 04:45:00,
2013-02-02 23:50:00,30.3,29.0,30.02,WNW,295,0.0,9.0,95,0.00,,,0.17,VWS V14.01,2013-02-03 04:50:00,
2013-02-02 23:55:00,30.3,29.0,30.02,WNW,303,0.0,9.0,95,0.00,,,0.17,VWS V14.01,2013-02-03 04:55:00,